Previsão horária em Alingsas

Hoje, 16 Junho, Quarta-feira

Tempo Temperatura Precipitação Vento Pressão Humidade
00:00 +8°C° 0 mm 2 m/s 755 mmHg 94%
01:00 +8°C° 0 mm 2 m/s 755 mmHg 95%
02:00 +8°C° 0 mm 2 m/s 755 mmHg 95%
03:00 +8°C° 0 mm 2 m/s 755 mmHg 95%
04:00 +8°C° 0 mm 2 m/s 755 mmHg 95%
05:00 +9°C° 0 mm 3 m/s 755 mmHg 85%
06:00 +11°C° 0 mm 3 m/s 755 mmHg 74%
07:00 +13°C° 0 mm 4 m/s 755 mmHg 64%
08:00 +15°C° 0 mm 4 m/s 755 mmHg 57%
09:00 +17°C° 0 mm 4 m/s 755 mmHg 50%
10:00 +18°C° 0 mm 4 m/s 756 mmHg 42%
11:00 +19°C° 0 mm 4 m/s 756 mmHg 40%
12:00 +20°C° 0 mm 4 m/s 755 mmHg 37%
13:00 +20°C° 0 mm 4 m/s 755 mmHg 34%
14:00 +20°C° 0 mm 4 m/s 755 mmHg 34%
15:00 +21°C° 0 mm 4 m/s 755 mmHg 34%
16:00 +21°C° 0 mm 4 m/s 755 mmHg 34%
17:00 +20°C° 0 mm 3 m/s 755 mmHg 41%
18:00 +19°C° 0 mm 3 m/s 755 mmHg 48%
19:00 +18°C° 0 mm 3 m/s 755 mmHg 56%
20:00 +16°C° 0 mm 2 m/s 755 mmHg 65%
21:00 +14°C° 0 mm 2 m/s 755 mmHg 75%
22:00 +13°C° 0 mm 1 m/s 755 mmHg 84%
23:00 +12°C° 0 mm 1 m/s 755 mmHg 88%

Amanhã, 17 Junho, Quinta-feira

Tempo Temperatura Precipitação Vento Pressão Humidade
00:00 +12°C° 0 mm 1 m/s 755 mmHg 92%
01:00 +11°C° 0 mm 1 m/s 755 mmHg 95%
02:00 +11°C° 0 mm 1 m/s 755 mmHg 94%
03:00 +11°C° 0 mm 1 m/s 756 mmHg 93%
04:00 +10°C° 0 mm 1 m/s 756 mmHg 92%
05:00 +13°C° 0 mm 2 m/s 756 mmHg 80%
06:00 +15°C° 0 mm 2 m/s 755 mmHg 67%
07:00 +18°C° 0 mm 2 m/s 755 mmHg 55%
08:00 +20°C° 0 mm 2 m/s 755 mmHg 50%
09:00 +22°C° 0 mm 3 m/s 755 mmHg 45%
10:00 +25°C° 0 mm 3 m/s 755 mmHg 40%
11:00 +26°C° 0 mm 3 m/s 755 mmHg 40%
12:00 +27°C° 0 mm 3 m/s 755 mmHg 40%
13:00 +28°C° 0 mm 3 m/s 754 mmHg 40%
14:00 +28°C° 0 mm 3 m/s 754 mmHg 41%
15:00 +28°C° 0 mm 3 m/s 754 mmHg 42%
16:00 +28°C° 0 mm 3 m/s 753 mmHg 43%
17:00 +28°C° 0 mm 3 m/s 753 mmHg 48%
18:00 +27°C° 0 mm 3 m/s 753 mmHg 53%
19:00 +26°C° 0 mm 3 m/s 753 mmHg 58%
20:00 +25°C° 0 mm 3 m/s 753 mmHg 62%
21:00 +22°C° 0 mm 4 m/s 753 mmHg 65%
22:00 +21°C° 0 mm 4 m/s 753 mmHg 69%
23:00 +21°C° 0 mm 4 m/s 752 mmHg 70%

Depois de amanhã, 18 Junho, Sexta-feira

Tempo Temperatura Precipitação Vento Pressão Humidade
00:00 +21°C° 0 mm 4 m/s 752 mmHg 70%
01:00 +21°C° 0 mm 5 m/s 752 mmHg 71%
02:00 +20°C° 0 mm 4 m/s 752 mmHg 74%
03:00 +20°C° 0 mm 4 m/s 752 mmHg 78%
04:00 +20°C° 0 mm 4 m/s 751 mmHg 81%
05:00 +21°C° 0 mm 4 m/s 752 mmHg 79%
06:00 +21°C° 0 mm 4 m/s 752 mmHg 76%
07:00 +22°C° 0 mm 4 m/s 752 mmHg 74%
08:00 +23°C° 0 mm 4 m/s 752 mmHg 68%
09:00 +25°C° 0 mm 4 m/s 752 mmHg 62%
10:00 +26°C° 0 mm 4 m/s 753 mmHg 57%
11:00 +26°C° 0 mm 4 m/s 753 mmHg 53%
12:00 +27°C° 0 mm 4 m/s 753 mmHg 49%
13:00 +28°C° 0 mm 4 m/s 753 mmHg 45%
14:00 +27°C° 0 mm 4 m/s 753 mmHg 46%
15:00 +27°C° 0 mm 4 m/s 753 mmHg 47%
16:00 +27°C° 0 mm 3 m/s 753 mmHg 48%
17:00 +26°C° 0 mm 3 m/s 753 mmHg 52%
18:00 +25°C° 0 mm 2 m/s 753 mmHg 57%
19:00 +24°C° 0 mm 2 m/s 753 mmHg 62%
20:00 +22°C° 0 mm 1 m/s 753 mmHg 71%
21:00 +20°C° 0 mm 1 m/s 754 mmHg 80%
22:00 +16°C° 0 mm 0 m/s 754 mmHg 89%
23:00 +16°C° 0.2 mm 0 m/s 754 mmHg 91%

19 Junho, Sábado

Tempo Temperatura Precipitação Vento Pressão Humidade
00:00 +18°C° 0.2 mm 1 m/s 754 mmHg 92%
01:00 +18°C° 0.2 mm 1 m/s 753 mmHg 93%
02:00 +18°C° 0.5 mm 1 m/s 753 mmHg 95%
03:00 +18°C° 0.5 mm 1 m/s 753 mmHg 96%
04:00 +17°C° 0.5 mm 2 m/s 752 mmHg 97%
05:00 +19°C° 0.1 mm 2 m/s 752 mmHg 93%
06:00 +20°C° 0.1 mm 2 m/s 752 mmHg 90%
07:00 +21°C° 0.1 mm 2 m/s 752 mmHg 86%
08:00 +24°C° 0.1 mm 3 m/s 752 mmHg 76%
09:00 +26°C° 0.1 mm 4 m/s 751 mmHg 66%
10:00 +28°C° 0.1 mm 4 m/s 751 mmHg 56%
11:00 +28°C° 0 mm 5 m/s 751 mmHg 54%
12:00 +29°C° 0 mm 5 m/s 751 mmHg 51%
13:00 +30°C° 0 mm 6 m/s 751 mmHg 48%
14:00 +29°C° 0 mm 6 m/s 751 mmHg 53%
15:00 +28°C° 0 mm 6 m/s 751 mmHg 58%
16:00 +27°C° 0 mm 6 m/s 751 mmHg 63%
17:00 +26°C° 0.1 mm 5 m/s 751 mmHg 68%
18:00 +23°C° 0.1 mm 5 m/s 751 mmHg 74%
19:00 +22°C° 0.1 mm 4 m/s 752 mmHg 80%
20:00 +20°C° 0 mm 4 m/s 752 mmHg 84%
21:00 +19°C° 0 mm 3 m/s 752 mmHg 89%
22:00 +18°C° 0 mm 3 m/s 752 mmHg 93%
23:00 +17°C° 0 mm 3 m/s 753 mmHg 92%

20 Junho, Domingo

Tempo Temperatura Precipitação Vento Pressão Humidade
00:00 +15°C° 0 mm 4 m/s 753 mmHg 91%
01:00 +14°C° 0 mm 4 m/s 754 mmHg 89%
02:00 +14°C° 0 mm 4 m/s 754 mmHg 89%
03:00 +14°C° 0 mm 3 m/s 754 mmHg 89%
04:00 +14°C° 0 mm 3 m/s 754 mmHg 89%
05:00 +14°C° 0 mm 3 m/s 754 mmHg 84%
06:00 +16°C° 0 mm 3 m/s 754 mmHg 79%
07:00 +16°C° 0 mm 3 m/s 754 mmHg 74%
08:00 +17°C° 0 mm 2 m/s 754 mmHg 66%
09:00 +19°C° 0 mm 2 m/s 754 mmHg 58%
10:00 +21°C° 0 mm 2 m/s 755 mmHg 51%
11:00 +23°C° 0 mm 2 m/s 755 mmHg 46%
12:00 +24°C° 0 mm 2 m/s 754 mmHg 42%
13:00 +25°C° 0 mm 1 m/s 754 mmHg 38%
14:00 +23°C° 0 mm 1 m/s 754 mmHg 44%
15:00 +21°C° 0 mm 2 m/s 754 mmHg 50%
16:00 +20°C° 0 mm 2 m/s 754 mmHg 56%
17:00 +20°C° 0 mm 2 m/s 754 mmHg 58%
18:00 +20°C° 0 mm 2 m/s 754 mmHg 59%
19:00 +20°C° 0 mm 2 m/s 754 mmHg 60%
20:00 +19°C° 0 mm 2 m/s 754 mmHg 64%
21:00 +19°C° 0 mm 2 m/s 754 mmHg 67%
22:00 +18°C° 0 mm 3 m/s 753 mmHg 70%
23:00 +18°C° 0 mm 2 m/s 753 mmHg 70%

21 Junho, Segunda-feira

Tempo Temperatura Precipitação Vento Pressão Humidade
00:00 +18°C° 0 mm 2 m/s 753 mmHg 69%
01:00 +17°C° 0 mm 2 m/s 753 mmHg 69%
02:00 +19°C° 0 mm 1 m/s 753 mmHg 71%
03:00 +19°C° 0 mm 1 m/s 753 mmHg 73%
04:00 +19°C° 0 mm 1 m/s 753 mmHg 75%
05:00 +21°C° 0.2 mm 1 m/s 752 mmHg 77%
06:00 +21°C° 0.2 mm 2 m/s 752 mmHg 80%
07:00 +23°C° 0.2 mm 2 m/s 752 mmHg 82%
08:00 +26°C° 0.1 mm 3 m/s 752 mmHg 72%
09:00 +28°C° 0.1 mm 3 m/s 752 mmHg 62%
10:00 +30°C° 0.1 mm 3 m/s 752 mmHg 52%
11:00 +31°C° 0 mm 3 m/s 752 mmHg 49%
12:00 +33°C° 0 mm 3 m/s 752 mmHg 46%
13:00 +33°C° 0 mm 4 m/s 752 mmHg 42%
14:00 +33°C° 0 mm 3 m/s 751 mmHg 42%
15:00 +33°C° 0 mm 3 m/s 751 mmHg 41%
16:00 +33°C° 0 mm 3 m/s 751 mmHg 40%
17:00 +31°C° 0 mm 2 m/s 751 mmHg 48%
18:00 +29°C° 0 mm 2 m/s 751 mmHg 55%
19:00 +28°C° 0 mm 1 m/s 751 mmHg 63%
20:00 +26°C° 0 mm 1 m/s 751 mmHg 70%
21:00 +24°C° 0 mm 1 m/s 752 mmHg 77%
22:00 +22°C° 0 mm 1 m/s 752 mmHg 84%
23:00 +21°C° 0 mm 2 m/s 752 mmHg 82%
Mostrar mais